Location: Oakley
(37.9974°N, 121.7125°W)
Time: 18:44:05
(UTC+00:00)

FALCON 9 R/B - Pass Details

Date: 13 February 2026
Orbit: 301 x 9255 km, 34.5° (Epoch: 10 March)

Event Time Altitude Azimuth Distance (km) Brightness Sun altitude
Exits shadow 14:02:03 15° 239° (WSW) 1,052 2.3 -11.8°
Maximum altitude 14:03:47 35° 177° (S) 522 1.3 -11.5°
Drops below altitude 10° 14:05:52 10° 106° (ESE) 1,176 4.6 -11.0°
Sets 14:07:54 0° 96° (E) 2,162 6.7 -10.6°
